Location: Hormuz
(27.0871°N, 56.4580°E)
Time: 10:47:20
(UTC+04:30)

ISS - Pass Details

Date: 26 June 2021
Orbit: 419 x 421 km, 51.6° (Epoch: 03 August)

Event Time Altitude Azimuth Distance (km) Brightness Sun altitude
Exits shadow 04:22:45 37° 285° (WNW) 661 -3.1 -17.5°
Maximum altitude 04:23:21 42° 315° (NW) 611 -3.0 -17.4°
Drops below altitude 10° 04:26:33 10° 27° (NNE) 1,495 0.1 -16.8°
Sets 04:28:44 0° 35° (NE) 2,361 1.5 -16.5°
